784  
ASUS46 KPDT 260525  
RWRPDT  
PENDLETON REGIONAL WEATHER ROUNDUP  
NATIONAL WEATHER SERVICE PENDLETON OREGON  
1000 PM PDT MON OCT 25 2021  
 
NOTE: FAIR INDICATES FEW OR NO CLOUDS BELOW 12,000 FEET WITH NO  
SIGNIFICANT WEATHER AND/OR S TO VISIBILITY
.  
 
# INDICATES UNOFFICIAL STATION AND DATA  
 
WAZ520-260610-  
EAST SLOPES OF WASHINGTON CASCADES  
 
CITY SKY/WX TMP DP RH WIND PRES REMARKS
 
#BULLFROG N/A 42 41 96 CALM N/A  
#EASTON DOT N/A 41 40 96 CALM N/A  
#ELK HTS DOT N/A 40 40 100 SW1 N/A  
#GLENWOOD N/A 45 43 93 CALM 29.74R  
#TROUT LAKE 1NE N/A 44 41 89 SW5 29.73R  
#TROUT LAKE 1E N/A 42 40 93 CALM 29.75R  

 
 
WAZ521-260610-  
SIMCOE HIGHLANDS  
 
CITY SKY/WX TMP DP RH WIND PRES REMARKS
 
#SATUS PASS DOT N/A 41 35 79 SW13G28 N/A WCI 34  
#CENTERVILLE 1SWN/A 46 39 76 W9 29.68R  
#LYLE 6NE N/A 46 43 89 S3 29.73R  
#PITT 4SE N/A 41 39 93 SW1 29.75R  

 
 
WAZ026-260610-  
KITTITAS VALLEY  
 
CITY SKY/WX TMP DP RH WIND PRES REMARKS
 
ELLENSBURG AP FAIR 44 36 73 MISG 29.64R  
#ELLENSBURG CWU N/A 43 38 82 CALM 29.59R  
#ELLENSBURG 3NE N/A 41 37 86 N3 27.74R  
#ELLENSBURG 1E N/A 43 38 82 CALM 29.67R  
#KITTITAS 3S N/A 45 39 79 CALM 29.64R  
#MANASTASH RDG N/A 42 38 86 S5 N/A  
#ROCKY CYN DOT N/A 42 41 96 W2 N/A  
#RYEGRASS DOT N/A 43 35 73 SW14 N/A WCI 36  

 
 
WAZ027-260610-  
YAKIMA VALLEY  
 
CITY SKY/WX TMP DP RH WIND PRES REMARKS
 
YAKIMA AIRPORT FAIR 50 45 83 S13 29.65R  
YAKIMA-VAGABOND PTCLDY 48 39 71 SW6 29.64R  
#MABTON N/A 54 43 66 SW7 29.70R  
#NACHES 2SW N/A 40 36 85 CALM 29.61S  
#OUTLOOK DOT N/A 53 39 59 CALM N/A  
#PARKER DOT N/A 50 40 68 CALM N/A  
#TERRACE HTS N/A 48 42 80 CALM 29.64R  
#I82 S UMTANUM RN/A 45 37 73 S6 N/A  
#UNION GAP DOT N/A 49 42 77 SW7 N/A  
#ZILLAH DOT N/A 49 40 71 E2 N/A  

 
 
WAZ028-260610-  
LOWER COLUMBIA BASIN...WASHINGTON  
 
CITY SKY/WX TMP DP RH WIND PRES REMARKS
 
HANFORD CLOUDY 54 39 57 S7 29.61  
PASCO FAIR 56 43 62 SW13 29.71R  
RICHLAND AWOS CLOUDY 55 44 66 SW12 29.70R  
#BASIN CITY 5SW N/A 53 43 69 S1 29.67R  
#BENTON CITY N/A 50 43 77 CALM 29.60R  
#CONNELL 5N N/A 49 45 86 S5 29.68R  
#ELTOPIA 6NW N/A 52 45 77 CALM 28.67R  
#KAHLOTUS N/A 51 42 71 W9 29.69R  
#KENNEWICK 3S N/A 51 43 74 CALM 29.70R  
#PROSSER DOT N/A 55 40 57 W13 N/A  
#SAGEMOOR 2W N/A 53 44 71 S7 29.55R  
#TOUCHET 2S N/A 56 43 62 SW7 29.70R  

 
 
WAZ029-260610-  
FOOTHILLS OF THE BLUES...WASHINGTON  
 
CITY SKY/WX TMP DP RH WIND PRES REMARKS
 
WALLA WALLA AP RAIN 50 44 80 S8 29.73R  
#CLYDE 6NW N/A 50 42 74 SW9 29.69R  
#LOWDEN 2SE N/A 55 43 64 CALM 29.69R  
#PRESCOTT N/A 52 45 77 CALM 29.71R  
#WALLA WALLA 5E N/A 50 44 80 S3 N/A  
#WHITMAN MISSIONN/A 53 45 74 CALM 29.70R  

 
 
WAZ030-260610-  
BLUE MOUNTAINS...WASHINGTON  
 
CITY SKY/WX TMP DP RH WIND PRES REMARKS
 

 
 
ORZ009-041-WAZ024-260610-  
COLUMBIA RIVER GORGE  
 
CITY SKY/WX TMP DP RH WIND PRES REMARKS
 
HOOD RIVER AP CLOUDY 46 45 96 CALM 29.74R  
THE DALLES AP FAIR 52 45 77 N5 29.73R  
#CELILO DOT N/A 54 38 55 S3 N/A  
#LYLE N/A 52 48 86 N3 29.75R  
#RUFUS DOT N/A 54 43 66 W2 N/A  
 

 
 
ORZ510-260610-  
NORTH CENTRAL OREGON  
 
CITY SKY/WX TMP DP RH WIND PRES REMARKS
 
#ANTELOPE N/A 44 36 73 CALM 29.63R  
#COW CYN RST AREN/A 44 34 68 SW10 N/A  
#DUFUR N/A 46 39 76 S1 29.70R  
#GRASS VALLEY 1SN/A 45 38 76 N23G35 29.70R WCI 36  
#KENT DOT N/A 44 30 58 W9 N/A  
#MORO SCHOOL N/A 48 36 63 CALM 29.62R  
#SHANIKO 5WSW N/A 41 35 79 S16 N/A WCI 33  
#WAPANITIA AIRPON/A 46 37 71 W9 29.78R  
#WASCO DOT N/A 48 42 80 W1 N/A  
#WASCO 5NE N/A 48 39 71 SW7 29.72R  

 
 
ORZ511-260610-  
CENTRAL OREGON  
 
CITY SKY/WX TMP DP RH WIND PRES REMARKS
 
BEND AIRPORT FAIR 43 32 65 SW9 29.81R  
MADRAS AIRPORT MOCLDY 45 32 60 SW9 29.81R  
PRINEVILLE AP CLOUDY 43 34 70 SW8 29.80R  
REDMOND AIRPORT MOCLEAR 43 35 73 S5 29.78R  
#ASHWOOD SCHOOL N/A 47 36 65 SE1 29.75R  
#BEND-KIM LN N/A 45 33 63 N3 29.72R  
#CULVER N/A 45 35 68 SW7 29.25R  
#PRINEVILLE N/A 46 36 68 CALM 29.86R  
#WARM SPRINGS N/A 49 38 66 CALM 29.62R  
 

 
 
 
ORZ509-260610-  
EAST SLOPES OF OREGON CASCADES  
 
CITY SKY/WX TMP DP RH WIND PRES REMARKS
 
SISTERS AWOS N/A 43 34 70 SW15G31 29.77R WCI 36  
SUNRIVER AWOS CLOUDY 37 32 82 SW12 29.86R WCI 29  
#BLUE BOX PASS N/A 36 N/A N/A N3 N/A  
#CAMP SHERMAN N/A 40 34 79 CALM 29.83R  
#LA PINE DOT N/A 39 31 73 SW3 N/A  
#LAVA BUTTE DOT N/A 36 31 82 N2 N/A  
#SISTERS ODOT N/A 41 33 73 S1 N/A  
#TUMALO 3W N/A 44 32 62 E3 29.65R  
#WANOGA BUTTE D N/A 31 27 85 W16G35 N/A WCI 20  
 

 
 
ORZ044-260610-  
LOWER COLUMBIA BASIN...OREGON  
 
CITY SKY/WX TMP DP RH WIND PRES REMARKS
 
HERMISTON CLOUDY 55 42 61 SW7 29.72R  
#BOARDMAN SCHOOLN/A 55 43 64 SW2 29.67R  
#ECHO 8SW N/A 52 42 69 W6 29.72R  
#I-84 EX 198 DOTN/A 54 37 52 NE6 N/A  
#UMATILLA N/A 55 43 64 CALM 29.62R  

 
 
ORZ507-260610-  
NORTHERN FOOTHILLS OF THE BLUES  
 
CITY SKY/WX TMP DP RH WIND PRES REMARKS
 
PENDLETON AIRPT LGT RAIN 51 42 71 SE6 29.73R  
#ATHENA N/A 50 41 71 S1 29.75R  
#CAYUSE N/A 49 41 74 SE8 29.70S  
#HELIX 3N N/A 47 41 79 S9 29.75R  
#HOLDMAN 5SE N/A 50 43 77 SW1 29.73R  
#HOLDMAN 6E N/A 48 42 80 CALM 29.51R  
#M-FREEWATER 5SEN/A 51 40 66 SE1 29.73R  
#PDT SUNRIDGE N/A 50 43 77 CALM 29.69R  
#PENDLETON 6SE N/A 50 41 71 S7 29.67R  
#TUTUILLA N/A 48 39 71 SE3 29.76R  
#UMAPINE 2E N/A 53 44 71 S2 29.72R  
#WESTON SCHOOL N/A 49 38 66 W1 29.41R  
 

 
 
ORZ508-260610-  
SOUTHERN FOOTHILLS OF THE BLUES  
 
CITY SKY/WX TMP DP RH WIND PRES REMARKS
 
#AJAX N/A 48 38 68 S16G24 29.72R WCI 42  
#HEPPNER EOC N/A 50 36 58 CALM 29.66R  
#HEPPNER 4NE N/A 47 37 68 SW1 29.72R  
#OLEX 4N N/A 52 41 66 SW7 29.73R  
#RUGGS 2SW N/A 47 35 63 SW7 29.78R  
 

 
 
ORZ502-503-260610-  
BLUE MOUNTAINS  
 
CITY SKY/WX TMP DP RH WIND PRES REMARKS
 
MEACHAM LGT RAIN 40 37 89 CALM 29.75R  
#BATTLE MTN DOT N/A 39 33 79 S6 N/A  
#LADD CYN SMT N/A 44 36 73 W7 N/A  
#LADD CREEK ODOTN/A 45 34 65 SW2 N/A  
#N POWDER DOT N/A 39 33 79 N3 N/A  
#TOLLGATE N/A 36 33 89 CALM 29.80R  
#TROY SCHOOL N/A 44 41 89 CALM 29.57R  
#WESTON 4E N/A 43 38 82 CALM 29.70R  

 
 
ORZ505-260610-  
JOHN DAY BASIN  
 
CITY SKY/WX TMP DP RH WIND PRES REMARKS
 
JOHN DAY CLOUDY 47 34 60 S5 29.79R  
#DAYVILLE SCHOOLN/A 51 37 59 CALM 29.75R  
#MITCHELL 8NW N/A 43 34 70 CALM 29.79R  
#MONUMENT HS N/A 51 34 52 CALM 29.62R  
#MT. VERNON 5SE N/A 43 32 65 S6 29.79R  

 
 
ORZ506-260610-  
OCHOCO AND JOHN DAY HIGHLANDS  
 
CITY SKY/WX TMP DP RH WIND PRES REMARKS
 
#BUCK CREEK DOT N/A 40 31 70 W12 N/A WCI 33  
#HORSE RIDGE DO N/A 42 29 60 W2 N/A  
#KEYES SMT DOT N/A 40 32 73 W2 N/A  
#PAULINA ODOT N/A 44 33 65 SW5 N/A  
#PRAIRIE CITY N/A 41 34 76 E1 29.72R  
#SENECA 9NW N/A 37 33 85 CALM 29.78R  

 
 
ORZ049-260610-  
GRANDE RONDE VALLEY  
 
CITY SKY/WX TMP DP RH WIND PRES REMARKS
 
LA GRANDE LGT RAIN 48 35 60 NW8 29.77R  
#COVE SCHOOL N/A 46 37 71 SE2 29.78R  
#COVE 6NW N/A 44 38 79 CALM 29.73R  
#ELGIN 1E N/A 46 34 63 W1 N/A  
#IMBLER SCHOOL N/A 46 36 68 CALM 29.73R  
#ISLAND CITY 4N N/A 49 47 93 CALM 29.75R  
#LADD CYN DOT N/A 49 36 61 SE6 N/A  
#UNION 1S N/A 48 37 65 CALM 29.72R  

 
 
ORZ050-260610-  
WALLOWA COUNTY  
 
CITY SKY/WX TMP DP RH WIND PRES REMARKS
 
JOSEPH AIRPORT MOCLDY 35 31 85 S5 29.75R  
#ENTERPRISE HS N/A 37 33 85 CALM 29.61R  
#IMNAHA SCHOOL N/A 43 40 89 CALM 29.74R  
#JOSEPH 3N N/A 33 27 78 CALM 29.79R  
#LOSTINE N/A 39 34 82 CALM 29.52R  
#LOSTINE 3SE N/A 40 34 79 W3 29.80R  
#MT HOWARD 8000 N/A 27 22 81 W7 29.70R  
 

 
 
CLICK HERE TO GO TO PREVIOUS BULLETINS.

The Nexlab OR Page
The Nexlab WA Page Main Text Page